Location: Gunnison Valley Observatory
(38.5087°N, 106.9386°W)
Time: 03:30:04
(UTC-07:00)

Amateur Radio Satellites - All Passes

Search period start: 07 December 2016 03:00
Search period end: 08 December 2016 03:00
Location: Gunnison Valley Observatory, 38.5087°N, 106.9386°W

Satellite Date Start Highest point End Downlink Frequencies (MHz)
Time Altitude Azimuth
AUBIESAT-1 07 Dec 03:11:23 03:12:41 11° 266° (W) 03:13:59 437.475
ITUPSAT 1 07 Dec 03:14:04 03:17:10 17° 267° (W) 03:20:17 437.325
ITAMSAT 1 07 Dec 03:23:17 03:28:30 88° 103° (ESE) 03:33:40 435.822/435.867
PHONESAT 2.4 07 Dec 03:31:03 03:33:42 81° 12° (NNE) 03:36:20 2401.200-2431.200
MOZHAYETS 4 07 Dec 03:40:42 03:44:52 34° 263° (W) 03:49:03
CUBESAT XI-V 07 Dec 03:46:14 03:50:23 36° 71° (ENE) 03:54:35 437.345
SO-50 07 Dec 04:02:13 04:06:12 29° 50° (NE) 04:10:07 436.795
KKS-1 07 Dec 04:02:30 04:06:47 45° 261° (W) 04:11:06 437.445
STARS 07 Dec 04:05:05 04:09:30 86° 79° (ENE) 04:13:59 437.465
AO-7 07 Dec 04:34:12 04:42:27 64° 293° (WNW) 04:50:41 29.400- 29.500
GOMX 1 07 Dec 04:37:35 04:40:13 13° 89° (E) 04:42:50 467.674
BEESAT 3 07 Dec 04:59:01 05:02:51 59° 303° (WNW) 05:06:45 437.485
BRITE-PL 07 Dec 05:05:15 05:10:41 59° 100° (E) 05:16:17 437.365/2234.400
ITAMSAT 1 07 Dec 05:05:40 05:07:11 11° 301° (WNW) 05:08:41 435.822/435.867
PHONESAT 2.4 07 Dec 05:06:38 05:08:43 21° 209° (SSW) 05:10:48 2401.200-2431.200
CUTE-I 07 Dec 05:08:02 05:10:00 12° 90° (E) 05:11:57 437.470
HORYU 2 07 Dec 05:09:08 05:13:20 41° 99° (E) 05:17:30 437.375
YUBILEINY 07 Dec 05:18:57 05:27:02 38° 73° (ENE) 05:35:04 435.215
RS-15 07 Dec 05:23:35 05:31:30 21° 99° (E) 05:39:36 29.354- 29.394
LilacSat-2 07 Dec 05:24:19 05:26:30 15° 93° (E) 05:28:40 437.200
CUBESAT XI-V 07 Dec 05:24:28 05:27:51 20° 266° (W) 05:31:14 437.345
NOAA 15 07 Dec 05:25:21 05:29:15 21° 94° (E) 05:33:09 137.62
NOAA 18 07 Dec 05:27:28 05:29:09 11° 90° (E) 05:30:50 137.9125
BEESAT 2 07 Dec 05:30:40 05:34:32 60° 303° (WNW) 05:38:29 435.950
Cubesat XI-IV 07 Dec 05:32:36 05:36:41 22° 94° (E) 05:40:42 437.490
Cosmos 2504 07 Dec 05:42:35 05:49:37 26° 68° (ENE) 05:56:20 435.465 / 435.565
SO-50 07 Dec 05:42:44 05:46:34 28° 247° (WSW) 05:50:21 436.795
Cosmos 2491 07 Dec 05:46:25 05:53:39 30° 84° (E) 06:00:51 435.465 / 435.565
GOMX 1 07 Dec 06:13:17 06:18:46 74° 284° (WNW) 06:24:12 467.674
STRAND 1 07 Dec 06:14:11 06:19:05 48° 72° (ENE) 06:24:00 437.568
DOVE 4 07 Dec 06:17:47 06:22:58 54° 99° (E) 06:27:57 437.250
AO-7 07 Dec 06:29:53 06:33:35 14° 312° (NW) 06:37:18 29.400- 29.500
AIST 2 07 Dec 06:33:14 06:35:05 13° 108° (ESE) 06:36:58 435.215
AIST 1 07 Dec 06:40:03 06:44:26 62° 81° (E) 06:48:47
BRITE-PL 07 Dec 06:44:55 06:48:41 19° 295° (WNW) 06:52:32 437.365/2234.400
CUTE-I 07 Dec 06:45:15 06:50:34 76° 286° (WNW) 06:55:52 437.470
HORYU 2 07 Dec 06:46:38 06:49:33 17° 295° (WNW) 06:52:26 437.375
LilacSat-2 07 Dec 06:57:29 07:00:52 32° 288° (WNW) 07:04:14 437.200
NOAA 15 07 Dec 07:04:12 07:09:12 45° 289° (WNW) 07:14:12 137.62
NOAA 18 07 Dec 07:04:52 07:10:26 83° 285° (WNW) 07:15:56 137.9125
Cubesat XI-IV 07 Dec 07:11:52 07:16:54 43° 289° (WNW) 07:21:54 437.490
CUTE 1.7 + AOD 2 07 Dec 07:13:27 07:17:00 26° 96° (E) 07:20:32 437.475
YUBILEINY 07 Dec 07:15:40 07:23:52 45° 272° (W) 07:32:04 435.215
CINEMA 3 07 Dec 07:27:18 07:32:05 68° 101° (E) 07:36:36 145.822/145.860
HO-68 07 Dec 07:29:49 07:36:45 47° 100° (E) 07:43:36 435.675
RS-15 07 Dec 07:30:24 07:42:08 89° 119° (ESE) 07:54:29 29.354- 29.394
CANX-2 07 Dec 07:31:18 07:35:25 50° 99° (E) 07:39:31 2200.000
AAUSAT CUBESAT 2 07 Dec 07:31:56 07:34:07 14° 92° (E) 07:36:16 437.432
Cosmos 2504 07 Dec 07:35:02 07:43:41 65° 268° (W) 07:51:47 435.465 / 435.565
CUBEBUG 2 07 Dec 07:37:36 07:40:44 19° 93° (E) 07:43:46 437.445
PRISM 07 Dec 07:41:13 07:44:19 21° 68° (ENE) 07:47:26 437.425
Cosmos 2491 07 Dec 07:41:23 07:49:57 56° 282° (WNW) 07:58:32 435.465 / 435.565
SEEDS 07 Dec 07:54:01 07:58:06 52° 100° (E) 08:02:12 437.485
STRAND 1 07 Dec 07:54:56 07:58:29 19° 267° (W) 08:02:02 437.568
DOVE 4 07 Dec 07:56:33 08:00:08 19° 296° (WNW) 08:03:39 437.250
COMPASS 1 07 Dec 08:02:01 08:05:58 41° 98° (E) 08:09:55 437.405
AIST 2 07 Dec 08:09:05 08:13:04 52° 304° (NW) 08:17:09 435.215
UWE-3 07 Dec 08:16:42 08:20:34 33° 97° (E) 08:24:20 435.000/436.395/437.385
UNISAT 6 07 Dec 08:37:25 08:41:01 22° 68° (ENE) 08:44:35 437.425
NOAA 18 07 Dec 08:48:38 08:50:10 11° 302° (WNW) 08:51:42 137.9125
CUTE 1.7 + AOD 2 07 Dec 08:49:20 08:52:43 24° 291° (WNW) 08:56:05 437.475
CUSAT 1 07 Dec 08:50:25 08:53:15 29° 97° (E) 08:55:43 437.405
ZACube-1 07 Dec 08:54:32 08:58:40 54° 100° (E) 09:02:43 437.345
FUNcube-1 07 Dec 09:01:25 09:05:35 60° 100° (E) 09:09:40 145.935
AAUSAT CUBESAT 2 07 Dec 09:05:50 09:09:45 42° 287° (WNW) 09:13:41 437.432
TIGRISAT 07 Dec 09:06:03 09:10:26 41° 72° (ENE) 09:14:47 435.000
CINEMA 3 07 Dec 09:06:34 09:08:31 12° 298° (WNW) 09:10:26 145.822/145.860
ANTELSAT 07 Dec 09:07:48 09:12:15 45° 73° (ENE) 09:16:41 437.575/2403.000
CANX-2 07 Dec 09:08:48 09:10:49 13° 295° (WNW) 09:12:51 2200.000
CUBEBUG 2 07 Dec 09:13:31 09:17:25 33° 289° (WNW) 09:21:13 437.445
PRISM 07 Dec 09:15:59 09:19:27 27° 263° (W) 09:22:56 437.425
HO-68 07 Dec 09:17:58 09:24:10 33° 297° (WNW) 09:30:23 435.675
Oscar 11 07 Dec 09:30:13 09:34:29 64° 285° (WNW) 09:38:44 145.826/435.025
SEEDS 07 Dec 09:31:31 09:33:20 13° 295° (WNW) 09:35:09 437.485
COMPASS 1 07 Dec 09:38:45 09:41:09 15° 294° (WNW) 09:43:33 437.405
POPSAT HIP 1 07 Dec 09:42:06 09:42:52 10° 63° (ENE) 09:43:37 437.405
AO-85 07 Dec 09:46:02 09:49:05 21° 48° (NE) 09:52:03 145.980
RS-15 07 Dec 09:46:05 09:56:25 32° 325° (NW) 10:07:06 29.354- 29.394
DANDE 07 Dec 09:48:10 09:52:43 47° 98° (E) 09:56:11 436.750
DELFI C3 07 Dec 09:52:08 09:56:08 82° 104° (ESE) 10:00:07 145.870
UWE-3 07 Dec 09:53:45 09:56:46 19° 293° (WNW) 09:59:44 435.000/436.395/437.385
GONETS M04 07 Dec 09:58:29 10:03:12 15° 62° (ENE) 10:07:54
HUMSAT D 07 Dec 10:10:04 10:14:08 65° 102° (ESE) 10:18:09 437.325/437.525
UNISAT 6 07 Dec 10:13:12 10:17:29 35° 262° (W) 10:21:45 437.425
JAS-2 07 Dec 10:23:56 10:30:17 59° 74° (ENE) 10:35:57 435.910
Cosmos 2499 07 Dec 10:30:57 10:38:00 28° 69° (ENE) 10:44:37 435.465 / 435.565
NANOSAT C BR1 07 Dec 10:32:09 10:36:04 36° 72° (ENE) 10:39:59 145.865
ZACube-1 07 Dec 10:32:50 10:34:26 12° 296° (WNW) 10:36:01 437.345
QB50P2 07 Dec 10:39:10 10:43:19 51° 74° (ENE) 10:47:28 145.880/145.840
POLYITAN 1 07 Dec 10:39:40 10:43:48 48° 73° (ENE) 10:47:57 437.675
FUNcube-1 07 Dec 10:40:13 10:41:15 11° 297° (WNW) 10:42:16 145.935
TIGRISAT 07 Dec 10:43:58 10:47:13 19° 267° (W) 10:50:29 435.000
ANTELSAT 07 Dec 10:46:08 10:49:08 17° 267° (W) 10:52:07 437.575/2403.000
PCSat 07 Dec 10:51:17 10:56:35 58° 113° (ESE) 11:01:54 145.827
QB50P1 07 Dec 10:52:06 10:56:20 68° 75° (ENE) 11:00:36 145.935-145.965
DUCHIFAT 1 07 Dec 10:53:16 10:57:27 59° 75° (ENE) 11:01:39 145.980
POPSAT HIP 1 07 Dec 11:13:46 11:18:02 69° 259° (W) 11:22:19 437.405
AO-85 07 Dec 11:26:02 11:29:31 31° 246° (WSW) 11:32:56 145.980
BUGSAT 1 07 Dec 11:44:03 11:48:17 85° 76° (ENE) 11:52:33 437.445
ESTCUBE 1 07 Dec 11:46:52 11:51:24 80° 283° (WNW) 11:55:54 437.505/2401.250
AISAT 07 Dec 11:47:14 11:51:30 42° 99° (E) 11:55:43 437.250
JUGNU 07 Dec 11:48:36 11:50:42 12° 177° (S) 11:52:48 437.505
GONETS M04 07 Dec 11:52:41 12:01:26 81° 82° (E) 12:10:13
RS-15 07 Dec 12:06:43 12:14:40 19° 0° (N) 12:22:38 29.354- 29.394
NANOSAT C BR1 07 Dec 12:09:01 12:11:52 17° 267° (W) 12:14:44 145.865
CUBEBUG 1 07 Dec 12:09:12 12:13:39 74° 283° (WNW) 12:18:03 437.445
JAS-2 07 Dec 12:11:09 12:15:34 19° 266° (W) 12:19:42 435.910
50 SAT 07 Dec 12:13:42 12:17:16 73° 102° (ESE) 12:20:49 437.505
QB50P2 07 Dec 12:17:34 12:19:22 12° 268° (W) 12:21:12 145.880/145.840
POLYITAN 1 07 Dec 12:17:47 12:19:51 13° 268° (W) 12:21:53 437.675
Cosmos 2499 07 Dec 12:23:21 12:31:40 59° 269° (W) 12:39:22 435.465 / 435.565
VELOX 1 07 Dec 12:23:53 12:28:23 78° 283° (WNW) 12:32:49 145.980
Oscar 19 07 Dec 12:28:55 12:33:55 58° 73° (ENE) 12:38:58 437.125/150
TISAT 1 07 Dec 12:29:14 12:30:15 11° 91° (E) 12:31:16 437.305
DX 1 07 Dec 12:32:09 12:36:32 67° 102° (ESE) 12:40:53 434.975-435.025
DUCHIFAT 1 07 Dec 12:32:35 12:33:28 11° 269° (W) 12:34:22 145.980
UKube-1 07 Dec 12:36:17 12:40:33 53° 101° (E) 12:44:47 .
PCSat 07 Dec 12:36:18 12:40:20 21° 311° (NW) 12:44:25 145.827
Gurwin Techsat 1B 07 Dec 12:37:32 12:42:20 36° 69° (ENE) 12:47:09 435.225
SPROUT 07 Dec 12:45:47 12:50:02 64° 286° (WNW) 12:54:15 437.525
ITAMSAT 1 07 Dec 13:03:24 13:06:07 14° 61° (ENE) 13:08:49 435.822/435.867
BEESAT 3 07 Dec 13:17:12 13:21:04 46° 56° (NE) 13:24:53 437.485
AISAT 07 Dec 13:24:41 13:27:36 17° 295° (WNW) 13:30:32 437.250
SRMSAT 07 Dec 13:31:28 13:32:30 10° 172° (S) 13:33:32 437.500
JUGNU 07 Dec 13:37:32 13:38:48 11° 188° (S) 13:40:04 437.505
ITUPSAT 1 07 Dec 13:38:17 13:40:25 13° 91° (E) 13:42:32 437.325
AO-7 07 Dec 13:39:58 13:47:10 34° 60° (ENE) 13:54:23 29.400- 29.500
BEESAT 2 07 Dec 13:49:41 13:53:36 47° 55° (NE) 13:57:29 435.950
GONETS M04 07 Dec 13:51:38 13:57:08 19° 281° (W) 14:02:40
TISAT 1 07 Dec 14:02:04 14:06:13 56° 286° (WNW) 14:10:19 437.305
Oscar 19 07 Dec 14:10:39 14:13:35 15° 268° (W) 14:16:32 437.125/150
DX 1 07 Dec 14:10:46 14:12:07 11° 297° (WNW) 14:13:28 434.975-435.025
UKube-1 07 Dec 14:14:01 14:16:06 13° 296° (WNW) 14:18:11 .
Gurwin Techsat 1B 07 Dec 14:17:52 14:22:17 27° 265° (W) 14:26:44 435.225
RS-15 07 Dec 14:22:10 14:32:55 32° 35° (NE) 14:43:24 29.354- 29.394
O/OREOS (USA 219) 07 Dec 14:36:18 14:39:12 17° 100° (E) 14:42:05 437.305
ITAMSAT 1 07 Dec 14:39:45 14:44:57 71° 258° (WSW) 14:50:10 435.822/435.867
SWISSCUBE 07 Dec 14:41:11 14:45:57 72° 102° (ESE) 14:50:40 437.505
BEESAT 07 Dec 14:45:04 14:49:49 70° 101° (ESE) 14:54:32 436.000
AUBIESAT-1 07 Dec 14:47:50 14:52:20 57° 104° (ESE) 14:56:36 437.475
BEESAT 3 07 Dec 14:56:14 14:58:16 14° 251° (WSW) 15:00:17 437.485
M-CUBED/EXP-1 PRIME 07 Dec 15:01:25 15:06:06 82° 288° (WNW) 15:10:32 437.505
ITUPSAT 1 07 Dec 15:13:55 15:18:36 60° 286° (WNW) 15:23:16 437.325
SRMSAT 07 Dec 15:18:45 15:20:44 12° 183° (S) 15:22:44 437.500
ISS 07 Dec 15:23:42 15:26:55 63° 139° (SE) 15:30:12 145.825
BEESAT 2 07 Dec 15:28:54 15:30:58 14° 251° (WSW) 15:33:02 435.950
AO-7 07 Dec 15:31:32 15:39:33 53° 258° (WSW) 15:47:41 29.400- 29.500
MOZHAYETS 4 07 Dec 15:36:30 15:41:01 60° 100° (E) 15:45:31
GOMX 1 07 Dec 15:46:08 15:47:07 11° 60° (ENE) 15:48:07 467.674
KKS-1 07 Dec 15:54:46 15:58:55 36° 98° (E) 16:03:01 437.445
STARS 07 Dec 15:57:00 15:59:54 17° 93° (E) 16:02:49 437.465
Cosmos 2491 07 Dec 16:00:01 16:03:22 12° 59° (ENE) 16:06:44 435.465 / 435.565
HORYU 2 07 Dec 16:05:38 16:09:38 33° 70° (ENE) 16:13:39 437.375
O/OREOS (USA 219) 07 Dec 16:13:53 16:18:13 42° 295° (WNW) 16:22:33 437.305
BRITE-PL 07 Dec 16:15:16 16:19:25 49° 73° (ENE) 16:23:52 437.365/2234.400
SWISSCUBE 07 Dec 16:21:18 16:23:06 12° 298° (WNW) 16:24:54 437.505
AUBIESAT-1 07 Dec 16:23:36 16:26:11 15° 301° (WNW) 16:28:44 437.475
BEESAT 07 Dec 16:25:04 16:26:59 12° 298° (WNW) 16:28:53 436.000
CUTE-I 07 Dec 16:27:38 16:31:21 19° 64° (ENE) 16:35:03 437.470
AIST 2 07 Dec 16:31:28 16:35:40 62° 57° (ENE) 16:39:50 435.215
RS-15 07 Dec 16:34:45 16:47:12 89° 242° (WSW) 16:59:09 29.354- 29.394
NOAA 15 07 Dec 16:43:54 16:48:21 29° 67° (ENE) 16:52:50 137.62
NOAA 18 07 Dec 16:50:58 16:55:03 22° 63° (ENE) 16:59:10 137.9125
Cubesat XI-IV 07 Dec 16:52:56 16:57:39 32° 68° (ENE) 17:02:23 437.490
ISS 07 Dec 17:01:15 17:03:42 19° 335° (NNW) 17:06:08 145.825
MOZHAYETS 4 07 Dec 17:15:33 17:17:39 13° 296° (WNW) 17:19:45
GOMX 1 07 Dec 17:19:46 17:24:20 82° 257° (WSW) 17:29:17 467.674
CUBESAT XI-V 07 Dec 17:20:44 17:25:24 75° 285° (WNW) 17:30:05 437.345
DOVE 4 07 Dec 17:21:18 17:25:50 43° 72° (ENE) 17:30:40 437.250
KKS-1 07 Dec 17:31:58 17:35:12 20° 294° (WNW) 17:38:26 437.445
STARS 07 Dec 17:32:16 17:36:24 39° 289° (WNW) 17:40:29 437.465
LilacSat-2 07 Dec 17:37:07 17:40:58 87° 258° (WSW) 17:44:50 437.200
HORYU 2 07 Dec 17:42:48 17:46:13 21° 265° (W) 17:49:38 437.375
Cosmos 2491 07 Dec 17:53:14 18:01:57 70° 81° (E) 18:10:37 435.465 / 435.565
BRITE-PL 07 Dec 17:56:19 17:58:19 13° 271° (W) 18:00:23 437.365/2234.400
HO-68 07 Dec 17:57:25 18:03:28 31° 62° (ENE) 18:09:33 435.675
CUTE 1.7 + AOD 2 07 Dec 18:05:34 18:08:11 16° 67° (ENE) 18:10:47 437.475
CUTE-I 07 Dec 18:05:42 18:10:57 53° 260° (W) 18:16:12 437.470
AIST 2 07 Dec 18:12:19 18:13:35 11° 253° (WSW) 18:14:51 435.215
SO-50 07 Dec 18:17:01 18:19:13 13° 108° (ESE) 18:21:25 436.795
YUBILEINY 07 Dec 18:17:58 18:26:04 45° 88° (E) 18:34:13 435.215
Cosmos 2504 07 Dec 18:19:54 18:25:48 22° 79° (E) 18:31:54 435.465 / 435.565
CANX-2 07 Dec 18:22:46 18:26:25 29° 71° (ENE) 18:30:03 2200.000
NOAA 15 07 Dec 18:23:22 18:28:01 32° 263° (W) 18:32:41 137.62
CINEMA 3 07 Dec 18:26:30 18:31:17 52° 73° (ENE) 18:36:10 145.822/145.860
STRAND 1 07 Dec 18:27:08 18:30:33 18° 93° (E) 18:33:57 437.568
NOAA 18 07 Dec 18:29:57 18:35:18 51° 259° (W) 18:40:43 137.9125
Cubesat XI-IV 07 Dec 18:32:58 18:37:39 30° 264° (W) 18:42:23 437.490
CUBEBUG 2 07 Dec 18:34:25 18:37:21 16° 66° (ENE) 18:40:15 437.445
SEEDS 07 Dec 18:44:23 18:48:00 29° 71° (ENE) 18:51:36 437.485
RS-15 07 Dec 18:49:37 18:57:53 22° 261° (W) 19:06:00 29.354- 29.394
COMPASS 1 07 Dec 18:51:39 18:54:56 23° 69° (ENE) 18:58:13 437.405
DOVE 4 07 Dec 19:00:19 19:03:45 19° 269° (W) 19:07:19 437.250
AIST 1 07 Dec 19:07:46 19:11:45 38° 92° (E) 19:15:47
UWE-3 07 Dec 19:11:59 19:15:48 25° 69° (ENE) 19:19:33 435.000/436.395/437.385
CUSAT 1 07 Dec 19:21:20 19:24:29 22° 78° (ENE) 19:28:17 437.405
CUTE 1.7 + AOD 2 07 Dec 19:39:44 19:43:41 39° 262° (W) 19:47:39 437.475
PCSat 07 Dec 19:40:43 19:45:40 35° 54° (NE) 19:50:36 145.827
HO-68 07 Dec 19:43:58 19:50:51 50° 260° (W) 19:57:48 435.675
ZACube-1 07 Dec 19:48:24 19:52:35 37° 72° (ENE) 19:56:43 437.345
Cosmos 2491 07 Dec 19:51:38 19:57:53 23° 279° (W) 20:04:09 435.465 / 435.565
AAUSAT CUBESAT 2 07 Dec 19:53:54 19:58:00 82° 258° (WSW) 20:02:08 437.432
SO-50 07 Dec 19:54:24 19:59:09 66° 303° (WNW) 20:03:51 436.795
FUNcube-1 07 Dec 19:54:57 19:59:11 40° 72° (ENE) 20:03:21 145.935
CANX-2 07 Dec 19:59:04 20:02:15 21° 266° (W) 20:05:27 2200.000
STRAND 1 07 Dec 20:05:04 20:09:58 49° 288° (WNW) 20:14:51 437.568
CINEMA 3 07 Dec 20:05:36 20:08:40 16° 269° (W) 20:11:48 145.822/145.860
CUBEBUG 2 07 Dec 20:08:54 20:13:32 51° 261° (W) 20:18:08 437.445
Cosmos 2504 07 Dec 20:09:47 20:18:07 75° 279° (W) 20:26:59 435.465 / 435.565
YUBILEINY 07 Dec 20:15:04 20:22:55 37° 287° (WNW) 20:30:53 435.215
ISS 07 Dec 20:17:35 20:19:00 12° 16° (NNE) 20:20:26 145.825
SEEDS 07 Dec 20:20:35 20:23:41 20° 266° (W) 20:26:48 437.485
Oscar 11 07 Dec 20:23:01 20:27:20 80° 76° (ENE) 20:31:39 145.826/435.025
DANDE 07 Dec 20:26:14 20:28:32 19° 79° (E) 20:31:12 436.750
COMPASS 1 07 Dec 20:26:56 20:30:22 25° 264° (W) 20:33:48 437.405
DELFI C3 07 Dec 20:36:19 20:39:53 35° 73° (ENE) 20:43:30 145.870
AIST 1 07 Dec 20:46:49 20:49:30 16° 288° (WNW) 20:52:13
UWE-3 07 Dec 20:48:00 20:52:05 30° 264° (W) 20:56:09 435.000/436.395/437.385
PRISM 07 Dec 20:58:01 21:01:58 41° 99° (E) 21:05:55 437.425
HUMSAT D 07 Dec 20:59:39 21:03:31 36° 72° (ENE) 21:07:20 437.325/437.525
CUSAT 1 07 Dec 21:02:47 21:06:15 27° 264° (W) 21:10:33 437.405
PCSat 07 Dec 21:24:14 21:28:57 31° 251° (WSW) 21:33:39 145.827
ZACube-1 07 Dec 21:25:41 21:28:56 19° 266° (W) 21:32:10 437.345
FUNcube-1 07 Dec 21:32:29 21:35:31 18° 267° (W) 21:38:32 145.935
SO-50 07 Dec 21:39:37 21:40:29 10° 322° (NW) 21:41:20 436.795
ISS 07 Dec 21:52:56 21:56:10 47° 35° (NE) 21:59:22 145.825
UNISAT 6 07 Dec 22:06:06 22:10:22 53° 100° (E) 22:14:33 437.425
Cosmos 2504 07 Dec 22:08:54 22:13:10 14° 300° (WNW) 22:17:33 435.465 / 435.565
DANDE 07 Dec 22:09:24 22:11:05 14° 265° (W) 22:12:57 436.750
DELFI C3 07 Dec 22:12:36 22:14:50 15° 267° (W) 22:17:03 145.870
PRISM 07 Dec 22:34:25 22:36:54 16° 294° (WNW) 22:39:22 437.425
TIGRISAT 07 Dec 22:35:25 22:39:47 75° 285° (WNW) 22:44:02 435.000
HUMSAT D 07 Dec 22:36:29 22:39:13 17° 267° (W) 22:41:55 437.325/437.525
ANTELSAT 07 Dec 22:37:26 22:41:47 67° 285° (WNW) 22:46:01 437.575/2403.000
QB50P1 07 Dec 22:40:20 22:41:57 12° 91° (E) 22:43:34 145.935-145.965
AISAT 07 Dec 22:43:08 22:47:02 31° 70° (ENE) 22:50:59 437.250
ESTCUBE 1 07 Dec 22:44:35 22:49:03 78° 76° (ENE) 22:53:32 437.505/2401.250
50 SAT 07 Dec 22:48:02 22:50:48 22° 70° (ENE) 22:53:34 437.505
PHONESAT 2.4 07 Dec 22:57:03 22:59:15 23° 152° (SSE) 23:01:28 2401.200-2431.200
GONETS M04 07 Dec 22:59:13 23:04:30 18° 78° (ENE) 23:09:47
POPSAT HIP 1 07 Dec 23:00:41 23:03:54 21° 94° (E) 23:07:04 437.405
CUBEBUG 1 07 Dec 23:03:15 23:07:35 75° 76° (ENE) 23:11:59 437.445
Cosmos 2499 07 Dec 23:05:52 23:12:12 23° 80° (E) 23:18:40 435.465 / 435.565
JAS-2 07 Dec 23:18:59 23:24:07 54° 101° (E) 23:29:33 435.910
VELOX 1 07 Dec 23:19:19 23:23:42 76° 76° (ENE) 23:28:09 145.980
DX 1 07 Dec 23:26:01 23:30:10 46° 72° (ENE) 23:34:21 434.975-435.025
BUGSAT 1 07 Dec 23:29:02 23:31:06 13° 92° (E) 23:33:09 437.445
UKube-1 07 Dec 23:29:16 23:33:14 37° 71° (ENE) 23:37:13 .
ISS 07 Dec 23:30:12 23:32:23 16° 230° (SW) 23:34:33 145.825
SPROUT 07 Dec 23:37:13 23:41:30 78° 75° (ENE) 23:45:49 437.525
UNISAT 6 07 Dec 23:44:31 23:46:35 13° 296° (WNW) 23:48:37 437.425
NANOSAT C BR1 07 Dec 23:53:02 23:57:17 83° 102° (ESE) 00:01:28 145.865
QB50P2 08 Dec 00:00:59 00:05:12 68° 285° (WNW) 00:09:23 145.880/145.840
AO-85 08 Dec 00:01:04 00:02:32 11° 108° (ESE) 00:04:00 145.980
POLYITAN 1 08 Dec 00:01:27 00:05:41 72° 283° (WNW) 00:09:50 437.675
QB50P1 08 Dec 00:13:53 00:18:00 51° 286° (WNW) 00:22:05 145.935-145.965
DUCHIFAT 1 08 Dec 00:14:13 00:18:23 60° 286° (WNW) 00:22:29 145.980
AISAT 08 Dec 00:20:05 00:23:30 22° 265° (W) 00:26:57 437.250
50 SAT 08 Dec 00:21:32 00:24:01 18° 265° (W) 00:26:32 437.505
PHONESAT 2.4 08 Dec 00:31:38 00:34:18 77° 347° (NNW) 00:36:58 2401.200-2431.200
POPSAT HIP 1 08 Dec 00:35:59 00:39:40 30° 290° (WNW) 00:43:20 437.405
Oscar 19 08 Dec 00:42:31 00:46:36 23° 95° (E) 00:50:38 437.125/150
ITUPSAT 1 08 Dec 00:43:54 00:46:22 14° 63° (ENE) 00:48:52 437.325
O/OREOS (USA 219) 08 Dec 00:46:20 00:50:06 26° 61° (ENE) 00:53:49 437.305
GONETS M04 08 Dec 00:51:23 01:00:08 84° 277° (W) 01:08:53
TISAT 1 08 Dec 00:51:35 00:55:50 85° 76° (ENE) 01:00:06 437.305
Cosmos 2499 08 Dec 00:55:50 01:04:22 72° 279° (W) 01:13:18 435.465 / 435.565
Gurwin Techsat 1B 08 Dec 00:56:19 00:59:22 15° 91° (E) 01:02:26 435.225
BUGSAT 1 08 Dec 01:02:42 01:06:41 44° 287° (WNW) 01:10:36 437.445
DX 1 08 Dec 01:04:16 01:06:35 14° 268° (W) 01:08:54 434.975-435.025
JAS-2 08 Dec 01:05:32 01:08:50 17° 296° (WNW) 01:12:15 435.910
UKube-1 08 Dec 01:06:30 01:09:22 17° 266° (W) 01:12:16 .
AUBIESAT-1 08 Dec 01:31:35 01:35:37 53° 68° (ENE) 01:39:58 437.475
AO-85 08 Dec 01:37:29 01:42:28 79° 300° (WNW) 01:47:06 145.980
M-CUBED/EXP-1 PRIME 08 Dec 01:45:38 01:49:43 85° 249° (WSW) 01:54:12 437.505
SWISSCUBE 08 Dec 01:45:57 01:50:41 70° 74° (ENE) 01:55:27 437.505
BEESAT 08 Dec 01:49:45 01:54:29 68° 74° (ENE) 01:59:14 436.000
PHONESAT 2.4 08 Dec 02:07:02 02:09:38 53° 4° (N) 02:12:15 2401.200-2431.200
ITUPSAT 1 08 Dec 02:18:57 02:23:40 61° 259° (W) 02:28:25 437.325
Oscar 19 08 Dec 02:21:11 02:26:00 40° 290° (WNW) 02:30:50 437.125/150
O/OREOS (USA 219) 08 Dec 02:25:38 02:29:25 27° 257° (WSW) 02:33:11 437.305
Gurwin Techsat 1B 08 Dec 02:34:27 02:39:42 61° 287° (WNW) 02:44:55 435.225
MOZHAYETS 4 08 Dec 02:36:43 02:41:07 47° 73° (ENE) 02:45:31
SO-50 08 Dec 02:49:40 02:50:26 10° 38° (NE) 02:51:13 436.795
KKS-1 08 Dec 02:51:28 02:55:17 29° 69° (ENE) 02:59:08 437.445
STARS 08 Dec 02:53:02 02:55:18 14° 64° (ENE) 02:57:34 437.465
